Location: Buckeye Ditch
(40.9104°N, 122.9517°W)
Time: 13:08:13
(UTC+00:00)

Tiros 1 despin weight - Pass Details

Date: 26 May 2025
Orbit: 563 x 601 km, 48.2° (Epoch: 22 June)

Event Time Altitude Azimuth Distance (km) Brightness Sun altitude
Rises 08:35:12 0° 242° (WSW) 2,780 - -27.6°
Reaches altitude 10° 08:37:27 10° 243° (WSW) 1,890 - -27.5°
Maximum altitude 08:41:47 82° 330° (NNW) 595 - -27.4°
Exits shadow 08:43:20 40° 55° (NE) 879 ? -27.4°
Drops below altitude 10° 08:46:12 10° 60° (ENE) 1,922 ? -27.3°
Sets 08:48:30 0° 61° (ENE) 2,831 ? -27.2°
